Skip Page Navigation
NASA JPL Caltech
NASA Logo - Jet Propulsion Laboratory + View the NASA Portal
+ Near-Earth Object (NEO) Project
Search JPL
JPL Home Earth Solar System Stars & Galaxies Technology
JPL Solar System Dynamics
BODIES ORBITS EPHEMERIDES TOOLS PHYSICAL DATA DISCOVERY FAQ SITE MAP
JPL Small-Body Database Browser
Search: [ help ]  
63387 Brazos Bend (2001 HC67)
Classification: Main-belt Asteroid          SPK-ID: 2063387
Ephemeris | Orbit Diagram | Orbital Elements | Physical Parameters | Discovery Circumstances ]

[ hide orbit diagram ]
Orbit Diagram
Note: Make sure you have Java enabled on your browser to see the applet. This applet is provided as a 3D orbit visualization tool. The applet was implemented using 2-body methods, and hence should not be used for determining accurate long-term trajectories (over several years or decades) or planetary encounter circumstances. For accurate long-term ephemerides, please instead use our Horizons system.
Orbit Viewer

Additional Notes: the orbits shown in the applet are color coded. The planets are white lines, and the asteroid/comet is a blue line. The bright white line indicates the portion of the orbit that is above the ecliptic plane, and the darker portion is below the ecliptic plane. Likewise for the asteroid/comet orbit, the light blue indicates the portion above the ecliptic plane, and the dark blue the portion below the ecliptic plane.

Orbit Viewer applet originally written and kindly provided by Osamu Ajiki (AstroArts), and further modified by Ron Baalke (JPL).


Orbital Elements at Epoch 2455200.5 (2010-Jan-04.0) TDB
Reference: MPO135516 (heliocentric ecliptic J2000)
 Element Value Uncertainty (1-sigma)   Units 
e 0.2254273 n/a  
a 2.3938626 n/a AU
q 1.8542206 n/a AU
i 6.48429 n/a deg
node 60.45374 n/a deg
peri 333.46372 n/a deg
M 317.89883 n/a deg
tp 2455358.7118202
(2010-Jun-11.21182021)
n/a JED
period 1352.8425759
3.70
n/a
n/a
d
yr
n 0.26610635 n/a deg/d
Q 2.9335046 n/a AU
  Orbit Determination Parameters
   # obs. used (total)      384  
   first obs. used      1952-??-??  
   last obs. used      2008-02-27  
   # oppositions      10  
   planetary ephem.      DE403  
   quality code      0  
   fit RMS      0.54  
   data source      MPC:mpn  
   producer      MPC  

Additional Information
 T_jup = 3.487 

Ephemeris | Orbit Diagram | Orbital Elements | Physical Parameters | Discovery Circumstances ]

Physical Parameter Table
Parameter Symbol Value Units Sigma Reference Notes
absolute magnitude H 14.8 mag n/a MPO135516  

63387 Brazos Bend           Discovered 2001 Apr. 29 at Needville.
Brazos Bend State Park is located on 4975 acres in Fort Bend County, Texas. One of America's top ten state parks, it is rich in wildlife, including the American alligator. The park is also home to the George Observatory, where this minor planet was discovered.
NOTE: some special characters may not display properly (any characters within {} are an attempt to place the proper accent above a character)
Reference: 20070402/MPCPages.arcLast Updated: 2007-07-05

Alternate Designations
 2001 HC67 = 2000 AO230 
Ephemeris | Orbit Diagram | Orbital Elements | Physical Parameters | Discovery Circumstances ]
ABOUT SSD CREDITS/AWARDS PRIVACY/COPYRIGHT GLOSSARY LINKS
FirstGov 2010-Feb-10 07:03 UT
(server date/time)  
NASA Home Page
Site Manager:   Donald K. Yeomans
Webmaster  Alan B. Chamberlin